ONEWEB-0157

Last updated on Sun Apr 25 2021 00:02:03 GMT+0000 (Coordinated Universal Time)

1 48055U 21025P 21114.58336806 -.01052887 00000-0 -47224-1 0 9993 2 48055 87.4209 339.3529 0010115 133.0856 40.6702 15.24112867 1795

Satellite not in orbit